This demonstration page uses our WeatherBlox Daily Observations layout. Learn more.

41.55636, -103.73856

Hourly Observations for March 24, 2019

Temp ( °F °C ) Dew Point ( °F °C ) Humidity (%) Winds ( mph kmh ) Pressure ( in mb ) Visibility ( mi km ) Precip ( " mm )
12:02 am 00:02 Cloudy with Light Rain 39 4 39 4 100 100 Calm 30.03 1017 0.75 1.207008 0 0
12:09 am 00:09 Cloudy with Light Rain 40 4.4 40 4.4 100 100 Calm 30.03 1017 0.75 1.207008 0.01 0.254
12:40 am 00:40 Cloudy with Light Rain 39 4 39 4 100 100 Calm 30.03 1017 1.25 2.01168 0 0
12:53 am 00:53 Cloudy with Light Rain 40 4.4 40 4.4 100 100 Calm 30 1016 0.75 1.207008 0.02 0.508
1:07 am 01:07 Cloudy with Light Rain 40 4.4 40 4.4 100 100 Calm 30.03 1017 0.75 1.207008 0.001 0.001
1:14 am 01:14 Cloudy with Light Rain 39 4 39 4 100 100 Calm 30.03 1017 1 1.609344 0 0
1:19 am 01:19 Cloudy with Light Rain 40 4.4 40 4.4 100 100 Calm 30.03 1017 2 3.218688 0.001 0.001
1:27 am 01:27 Cloudy with Light Rain 40 4.4 40 4.4 100 100 Calm 30.03 1017 3 4.828032 0.001 0.001
1:37 am 01:37 Cloudy with Light Rain 40 4.4 40 4.4 100 100 Calm 30.03 1017 2.5 4.02336 0.001 0.001
1:50 am 01:50 Cloudy with Light Rain 39 4 39 4 100 100 Calm 30.03 1017 3 4.828032 0 0
1:53 am 01:53 Cloudy with Light Rain 40 4.4 40 4.4 100 100 Calm 30 1016 4 6.437376 0.01 0.254
2:27 am 02:27 Cloudy with Light Rain 40 4.4 40 4.4 100 100 Calm 30.03 1017 2.5 4.02336 0.001 0.001
2:39 am 02:39 Cloudy with Light Rain 40 4.4 40 4.4 100 100 Calm 30.03 1017 0.75 1.207008 0.01 0.254
2:53 am 02:53 Mostly Cloudy with Light Rain 40 4.4 40 4.4 100 100 Calm 30 1016 0.5 0.804672 0.01 0.254
3:16 am 03:16 Cloudy with Light Rain 40 4.4 40 4.4 100 100 Calm 30.03 1017 0.5 0.804672 0.01 0.254
3:24 am 03:24 Cloudy with Light Rain 39 4 39 4 100 100 Calm 30.03 1017 0.25 0.402336 0 0
3:29 am 03:29 Cloudy with Light Rain 39 3.9 39 3.9 100 100 Calm 30.06 1018 0.5 0.804672 0.01 0.254
3:51 am 03:51 Cloudy with Light Rain 39 4 39 4 100 100 Calm 30.03 1017 0.5 0.804672 0.01 0.254
3:53 am 03:53 Cloudy with Light Rain 39 3.9 39 3.9 100 100 E 3 6 30 1016 0.5 0.804672 0.01 0.254
4:01 am 04:01 Cloudy with Light Rain 39 3.9 39 3.9 100 100 E 3 6 30.06 1018 0.5 0.804672 0.001 0.001
4:11 am 04:11 Cloudy with Light Rain 38 3.3 38 3.3 100 100 Calm 30.06 1018 0.25 0.402336 0.001 0.001
4:18 am 04:18 Cloudy with Light Rain 37 3 37 3 100 100 Calm 30.06 1018 0.5 0.804672 0 0
4:53 am 04:53 Cloudy with Light Rain 39 3.9 39 3.9 100 100 Calm 30 1016 0.5 0.804672 0.001 0.001
5:00 am 05:00 Cloudy with Light Rain 39 4 39 4 100 100 Calm 30.09 1019 0.5 0.804672 0 0
5:40 am 05:40 Cloudy with Light Rain 39 4 39 4 100 100 Calm 30.09 1019 0.75 1.207008 0 0
5:53 am 05:53 Cloudy with Light Rain 39 3.9 39 3.9 100 100 Calm 30.03 1017 0.75 1.207008 0.001 0.001
6:08 am 06:08 Cloudy with Light Rain 39 4 39 4 100 100 Calm 30.09 1019 0.75 1.207008 0 0
6:53 am 06:53 Cloudy with Light Rain 38 3.3 38 3.3 100 100 Calm 30.03 1017 1 1.609344 0.001 0.001
7:04 am 07:04 Cloudy with Light Rain 37 3 37 3 100 100 Calm 30.09 1019 0.5 0.804672 0 0
7:15 am 07:15 Cloudy with Fog 37 3 37 3 100 100 Calm 30.09 1019 0.25 0.402336 0 0
7:24 am 07:24 Cloudy with Fog 38 3.3 38 3.3 100 100 Calm 30.09 1019 0.25 0.402336 0.001 0.001
7:30 am 07:30 Cloudy with Fog 39 3.9 39 3.9 100 100 Calm 30.12 1020 0.25 0.402336 0.001 0.001
7:40 am 07:40 Cloudy with Fog 39 4 39 4 100 100 Calm 30.12 1020 0.25 0.402336 0 0
7:49 am 07:49 Cloudy with Fog 39 4 39 4 100 100 Calm 30.12 1020 0.25 0.402336 0.001 0.001
7:53 am 07:53 Cloudy with Fog 39 3.9 39 3.9 100 100 Calm 30.06 1018 0.25 0.402336 0.001 0.001
8:12 am 08:12 Cloudy with Mist and Fog 39 4 39 4 100 100 SW 3 6 30.12 1020 1 1.609344 0 0
8:18 am 08:18 Cloudy with Fog 39 4 39 4 100 100 Calm 30.12 1020 0.25 0.402336 0 0
8:53 am 08:53 Cloudy with Light Rain 40 4.4 40 4.4 100 100 Calm 30.06 1018 0.5 0.804672 0.001 0.001
9:08 am 09:08 Cloudy with Light Rain 40 4.4 40 4.4 100 100 Calm 30.15 1021 2.5 4.02336 0.001 0.001
9:15 am 09:15 Cloudy with Light Rain 40 4.4 40 4.4 100 100 Calm 30.15 1021 4 6.437376 0.001 0.001
9:31 am 09:31 Cloudy with Light Rain 41 5 41 5 100 100 Calm 30.12 1020 5 8.04672 0.001 0.001
9:53 am 09:53 Cloudy with Light Rain 41 5 41 5 100 100 Calm 30.09 1019 4 6.437376 0.01 0.254
10:53 am 10:53 Cloudy with Light Rain 43 6.1 43 6.1 100 100 Calm 30.09 1019 6 9.656064 0.02 0.508
11:08 am 11:08 Cloudy with Light Rain 43 6 43 6 100 100 E 8 13 30.15 1021 5 8.04672 0 0
11:26 am 11:26 Cloudy with Light Rain 43 6 43 6 100 100 E 7 11 30.15 1021 5 8.04672 0 0
11:53 am 11:53 Cloudy with Light Rain 42 5.6 42 5.6 100 100 ESE 9 15 30.12 1020 6 9.656064 0.02 0.508
12:03 pm 12:03 Cloudy with Light Rain 42 5.6 42 5.6 100 100 E 10 17 30.15 1021 6 9.656064 0.001 0.001
12:53 pm 12:53 Cloudy with Light Rain 43 6.1 43 6.1 100 100 ESE 9 15 30.12 1020 9 14.484096 0.001 0.001
1:38 pm 13:38 Cloudy with Light Rain 43 6 43 6 100 100 ESE 8 13 30.15 1021 10 16.09344 0 0
1:53 pm 13:53 Cloudy with Light Rain 44 6.7 43 6.1 96 96 ESE 9 15 30.12 1020 10 16.09344 0.001 0.001
2:22 pm 14:22 Cloudy with Light Rain 45 7 43 6 93 93 E 9 15 30.12 1020 10 16.09344 0 0
2:53 pm 14:53 Cloudy with Light Rain 45 7.2 42 5.6 90 90 E 7 11 30.09 1019 10 16.09344 0.001 0.001
3:00 pm 15:00 Cloudy with Light Rain 45 7 43 6 93 93 SE 7 11 30.12 1020 10 16.09344 0 0
3:14 pm 15:14 Cloudy with Light Rain 45 7.2 42 5.6 90 90 ESE 8 13 30.12 1020 10 16.09344 0.001 0.001
3:53 pm 15:53 Cloudy 46 7.8 42 5.6 86 86 SE 7 11 30.12 1020 10 16.09344 0.001 0.001
4:53 pm 16:53 Cloudy 47 8.3 43 6.1 86 86 E 9 15 30.12 1020 10 16.09344 0 0
5:53 pm 17:53 Cloudy 46 7.8 41 5 83 83 E 9 15 30.12 1020 10 16.09344 0 0
6:30 pm 18:30 Partly Cloudy 45 7 43 6 93 93 ESE 6 9 30.12 1020 10 16.09344 0 0
6:53 pm 18:53 Partly Cloudy 44 6.7 41 5 89 89 ESE 5 7 30.15 1021 10 16.09344 0 0
7:01 pm 19:01 Mostly Cloudy 44 6.7 42 5.6 93 93 SE 3 6 30.15 1021 10 16.09344 0 0
7:25 pm 19:25 Cloudy 43 6.1 41 5 93 93 SE 3 6 30.15 1021 10 16.09344 0 0
7:53 pm 19:53 Cloudy 43 6.1 41 5 93 93 SSE 5 7 30.18 1022 10 16.09344 0 0
8:38 pm 20:38 Cloudy 43 6 41 5 93 93 SE 5 7 30.18 1022 10 16.09344 0 0
8:49 pm 20:49 Cloudy 43 6 39 4 87 87 SE 6 9 30.18 1022 10 16.09344 0 0
8:53 pm 20:53 Cloudy 42 5.6 40 4.4 92 92 SE 7 11 30.21 1023 10 16.09344 0 0
9:53 pm 21:53 Cloudy 41 5 41 5 100 100 ENE 5 7 30.21 1023 10 16.09344 0 0
10:53 pm 22:53 Cloudy 41 5 40 4.4 96 96 ESE 3 6 30.21 1023 10 16.09344 0 0
11:53 pm 23:53 Cloudy 39 3.9 39 3.9 100 100 E 3 6 30.24 1024 10 16.09344 0 0

Powered by AerisWeather